WetterOnline ( http://www.wetteronline.at )

Wetter aktuell Mannheim

Aktuelles Wetter: Mannheim (100m)

6-stündlich | Neueste Meldungen
Ortszeit Temperatur Wetter
Sa, 21.04. 2:00 10.8° C wolkig
Fr, 20.04. 20:00 21.4° C leicht bewölkt
Fr, 20.04. 14:00 25.1° C wolkig
Fr, 20.04. 8:00 12.5° C bewölkt
Fr, 20.04. 2:00 10.2° C fast wolkenlos
Do, 19.04. 20:00 24.4° C leicht bewölkt
Do, 19.04. 14:00 25.8° C wolkenlos
Do, 19.04. 8:00 12.2° C wolkig
Ortszeit Temperatur Wetter
Sa, 21.04. 4:00 9.6° C leicht bewölkt
Sa, 21.04. 3:40 9.7° C leicht bewölkt
Sa, 21.04. 3:30 10.8° C leicht bewölkt
Sa, 21.04. 3:20 10.8° C leicht bewölkt
Sa, 21.04. 3:10 11.8° C wolkig
Sa, 21.04. 3:00 10.4° C wolkig
Sa, 21.04. 2:50 10.4° C wolkig
Sa, 21.04. 2:30 10.1° C wolkig
Sa, 21.04. 2:00 10.8° C wolkig
Sa, 21.04. 1:30 10.9° C wolkig
Sa, 21.04. 1:00 11.3° C wolkig
Ortszeit Relative Feuchte Sichtweite
Sa, 21.04. 2:00 97% 13 km
Fr, 20.04. 20:00 62% 50 km
Fr, 20.04. 14:00 40% 18 km
Fr, 20.04. 8:00 73% 25 km
Fr, 20.04. 2:00 83% 45 km
Do, 19.04. 20:00 33% 55 km
Do, 19.04. 14:00 36% 24 km
Do, 19.04. 8:00 85% 17 km
Ortszeit Relative Feuchte Sichtweite
Sa, 21.04. 4:00 94% 13 km
Sa, 21.04. 3:40 93% -
Sa, 21.04. 3:30 91% 17 km
Sa, 21.04. 3:20 91% -
Sa, 21.04. 3:10 88% -
Sa, 21.04. 3:00 97% 17 km
Sa, 21.04. 2:50 97% -
Sa, 21.04. 2:30 99% 11 km
Sa, 21.04. 2:00 97% 13 km
Sa, 21.04. 1:30 94% 16 km
Sa, 21.04. 1:00 95% 20 km
Ortszeit Niederschlagsmenge Niederschlagsart
Sa, 21.04. 2:00 0.0 l/m2 in 6 Std. -
Fr, 20.04. 20:00 0.0 l/m2 in 12 Std. -
Fr, 20.04. 14:00 0.0 l/m2 in 6 Std. -
Fr, 20.04. 8:00 0.0 l/m2 in 12 Std. -
Fr, 20.04. 2:00 0.0 l/m2 in 6 Std. -
Do, 19.04. 20:00 0.0 l/m2 in 12 Std. -
Do, 19.04. 14:00 0.0 l/m2 in 6 Std. -
Do, 19.04. 8:00 0.0 l/m2 in 12 Std. -
Ortszeit Niederschlagsmenge Niederschlagsart
Sa, 21.04. 4:00 0.0 l/m2 in 1 Std. -
Sa, 21.04. 3:40 keine Meldung -
Sa, 21.04. 3:30 0.0 l/m2 in 1 Std. -
Sa, 21.04. 3:20 keine Meldung -
Sa, 21.04. 3:10 keine Meldung -
Sa, 21.04. 3:00 0.0 l/m2 in 1 Std. -
Sa, 21.04. 2:50 keine Meldung -
Sa, 21.04. 2:30 0.0 l/m2 in 1 Std. -
Sa, 21.04. 2:00 0.0 l/m2 in 1 Std. -
Sa, 21.04. 1:30 0.0 l/m2 in 1 Std. -
Sa, 21.04. 1:00 0.0 l/m2 in 1 Std. -
Ortszeit Stärke Spitze Richtung
km/h Bft. km/h Grad Sektor
Sa, 21.04. 2:00 0 0 7 - -
Fr, 20.04. 20:00 4 1 14 330° NW
Fr, 20.04. 14:00 6 1 13 230° SW
Fr, 20.04. 8:00 6 1 9 320° NW
Fr, 20.04. 2:00 4 1 11 30° NO
Do, 19.04. 20:00 9 2 19 100° O
Do, 19.04. 14:00 4 1 22 270° W
Do, 19.04. 8:00 7 2 11 270° W
Ortszeit Stärke Spitze Richtung
km/h Bft. km/h Grad Sektor
Sa, 21.04. 4:00 2 1 9 80° O
Sa, 21.04. 3:40 4 1 - 110° O
Sa, 21.04. 3:30 6 1 9 110° O
Sa, 21.04. 3:20 6 1 - 110° O
Sa, 21.04. 3:10 7 2 - 100° O
Sa, 21.04. 3:00 4 1 4 20° N
Sa, 21.04. 2:50 4 1 - 20° N
Sa, 21.04. 2:30 2 1 4 300° NW
Sa, 21.04. 2:00 0 0 4 - -
Sa, 21.04. 1:30 0 0 4 - -
Sa, 21.04. 1:00 2 1 6 90° O
Ortszeit Untergrenze Bedeckung Gattung
total tief tief mittel hoch
Sa, 21.04. 2:00 9000 m 8/8 0/8 - - -
Fr, 20.04. 20:00 10500 m 7/8 0/8 - - -
Fr, 20.04. 14:00 - 8/8 - - - -
Fr, 20.04. 8:00 3600 m 8/8 4/8 - - -
Fr, 20.04. 2:00 10500 m 2/8 0/8 - - -
Do, 19.04. 20:00 2700 m 8/8 1/8 - - -
Do, 19.04. 14:00 - 0/8 0/8 - - -
Do, 19.04. 8:00 12000 m 8/8 0/8 - - -
Ortszeit Bedeckungsgrad in Achtel und Wolkenuntergrenze
Sa, 21.04. 4:00 1(3300m)
Sa, 21.04. 3:40 1(3300m) 2(10500m) 3(10500m)
Sa, 21.04. 3:30 4(10500m) 6(10500m) 4(10500m)
Sa, 21.04. 3:20 4(10500m) 6(10500m)
Sa, 21.04. 3:10 8(9000m) 8(10500m)
Sa, 21.04. 3:00 8(9000m) 8(10500m)
Sa, 21.04. 2:50 8(9000m) 8(10500m)
Sa, 21.04. 2:30 8(9000m) 8(10500m)
Sa, 21.04. 2:00 8(9000m) 8(10500m)
Sa, 21.04. 1:30 8(9000m) 8(10500m)
Sa, 21.04. 1:00 8(9000m) 8(10500m)
Ortszeit Luftdruck NN (hPa) Tendenz (hPa in 3 Std.)
Sa, 21.04. 2:00 1021 - 0,3
Fr, 20.04. 20:00 1020 - 1,1
Fr, 20.04. 14:00 1023 - 1,0
Fr, 20.04. 8:00 1024 - 0,2
Fr, 20.04. 2:00 1025 - 0,6
Do, 19.04. 20:00 1025 - 0,5
Do, 19.04. 14:00 1027 - 1,2
Do, 19.04. 8:00 1029 0,0
Ortszeit Luftdruck NN (hPa) Tendenz (hPa in 3 Std.)
Sa, 21.04. 4:00 1020 - 0,4
Sa, 21.04. 3:40 1020 keine Meldung
Sa, 21.04. 3:30 1020 - 0,4
Sa, 21.04. 3:20 1020 keine Meldung
Sa, 21.04. 3:10 1020 keine Meldung
Sa, 21.04. 3:00 1020 - 0,4
Sa, 21.04. 2:50 1020 keine Meldung
Sa, 21.04. 2:30 1021 - 0,4
Sa, 21.04. 2:00 1021 - 0,3
Sa, 21.04. 1:30 1021 - 0,2
Sa, 21.04. 1:00 1021 - 0,2
Ortszeit Schneehöhe (cm)
Sa, 21.04. 2:00 0
Fr, 20.04. 20:00 0
Fr, 20.04. 14:00 0
Fr, 20.04. 8:00 0
Fr, 20.04. 2:00 0
Do, 19.04. 20:00 0
Do, 19.04. 14:00 0
Do, 19.04. 8:00 0
Ortszeit Schneehöhe (cm)
Sa, 21.04. 4:00 0
Sa, 21.04. 3:40 0
Sa, 21.04. 3:30 0
Sa, 21.04. 3:20 0
Sa, 21.04. 3:10 0
Sa, 21.04. 3:00 0
Sa, 21.04. 2:50 0
Sa, 21.04. 2:30 0
Sa, 21.04. 2:00 0
Sa, 21.04. 1:30 0
Sa, 21.04. 1:00 0
Link zu dieser Seite / Seite empfehlen

Das Wetter in ...